Regional Weather Roundup
Issued by NWS

Home | Current Version | Previous Version | Text Only | Print | Product List | Glossary Off
Versions: 1 2 3 4 5 6 7 8 9 10 11 12 13 14 15 16 17 18 19 20 21 22 23 24 25 26 27 28 29 30 31 32 33 34 35 36 37 38 39 40 41 42 43 44 45 46 47

000
ASUS45 KSLC 092010
RWRUT

UTAH REGIONAL WEATHER ROUNDUP
NATIONAL WEATHER SERVICE SALT LAKE CITY UT
200 PM MDT WED JUL 09 2014

UTZ001>011-023>025-092100-

NORTHERN UTAH

CITY           SKY/WX    TMP DP  RH WIND       PRES   REMARKS
HILL AFB       PTSUNNY   90  51  26 S13G26    30.05F
LOGAN          SUNNY     89  50  26 N7        30.02
OGDEN          PTSUNNY   88  49  25 S8        30.02F
PROVO AIRPORT  PTSUNNY   90  50  25 E3        30.04
SALT LAKE CITY MOSUNNY   92  47  21 S6        29.98F
VERNAL         MOSUNNY   91  45  20 SW7       30.07F
WENDOVER       SUNNY     95  39  14 SE10      29.97F HX  91
HEBER CITY     PTSUNNY   90  46  22 W10       30.11F THUNDER

$$

UTZ012>022-026-027-092100-

SOUTHERN UTAH

CITY           SKY/WX    TMP DP  RH WIND       PRES   REMARKS
CEDAR CITY     PTSUNNY   83  49  30 W20G29    30.14
MILFORD        MOSUNNY   92  45  19 S17G25    30.06
MOAB/CYNLANDS  SUNNY     93  46  19 MISG      30.03
PRICE          MOSUNNY   87  44  22 MISG      30.15F
ST GEORGE      NOT AVBL

$$

REGIONAL REPORTS     COLORADO/ARIZONA

CITY           SKY/WX    TMP DP  RH WIND       PRES   REMARKS
CRAIG, CO      SUNNY     86  46  24 W9        30.14
GRAND JUNCTION MOSUNNY   89  48  24 SW7       30.06F
RIFLE          MOSUNNY   90  41  18 VRB6      30.10F
MONTROSE       MOSUNNY   88  44  21 N6        30.15F
CORTEZ         SUNNY     85  48  27 SW9G17    30.17
PAGE, AZ       SUNNY     90  48  23 NE5       30.07F
GRAND CANYON   MOSUNNY   80  49  33 W7        30.26F
KINGMAN        MOSUNNY   87  56  34 SW15G22   30.07
FLAGSTAFF      LGT RAIN  63  53  70 N5        30.32S

$$

REGIONAL REPORTS    NEVADA/IDAHO/WYOMING

CITY           SKY/WX    TMP DP  RH WIND       PRES   REMARKS
LAS VEGAS, NV  CLOUDY    86  59  39 VRB3      29.93F
ELY            PTSUNNY   87  45  23 SW10      30.15
ELKO           SUNNY     90  41  18 CALM      30.06F
POCATELLO, ID  SUNNY     86  50  28 W9        30.01F
BURLEY         PTSUNNY   87  55  33 W9        29.98
EVANSTON, WY   MOSUNNY   84  43  23 SW9G22    30.22
ROCK SPRINGS   SUNNY     88  29  12 W8G24     30.16F

$$



USA.gov is the U.S. government's official web portal to all federal, state and local government web resources and services.